| time (UTC) | temp F | wind direction | speed knots | gust knots | rain 1hr in | rain 24hr in | rain mn in | humidity % | barometer mb |
| 20260902120703 | 69 | 189 | 2.6 | 8.7 | 0.00 | 0.01 | 0.01 | 73 | 1016.8 |
| 20260902120206 | 69 | 243 | 1.7 | 8.7 | 0.00 | 0.01 | 0.01 | 73 | 1016.9 |
| 20260902115703 | 69 | 220 | 2.6 | 6.1 | 0.00 | 0.01 | 0.01 | 74 | 1016.9 |
| 20260902115204 | 69 | 189 | 1.7 | 6.1 | 0.01 | 0.01 | 0.01 | 74 | 1016.8 |
| 20260902114704 | 69 | 252 | 3.5 | 6.1 | 0.01 | 0.01 | 0.01 | 75 | 1016.8 |
| 20260902114204 | 68 | 261 | 2.6 | 4.3 | 0.01 | 0.01 | 0.01 | 76 | 1016.9 |
| 20260902113709 | 67 | 176 | 0.9 | 6.1 | 0.01 | 0.01 | 0.01 | 76 | 1016.9 |
| 20260902112706 | 66 | 227 | 1.7 | 4.3 | 0.01 | 0.01 | 0.01 | 77 | 1017.1 |
| 20260902112204 | 66 | 188 | 0.9 | 4.3 | 0.01 | 0.01 | 0.01 | 77 | 1017.2 |
| 20260902111204 | 65 | 192 | 0.0 | 6.1 | 0.01 | 0.01 | 0.01 | 77 | 1017.4 |
| 20260902110704 | 65 | 176 | 1.7 | 6.1 | 0.01 | 0.01 | 0.01 | 77 | 1017.6 |
| 20260902110228 | 65 | 199 | 1.7 | 6.1 | 0.01 | 0.01 | 0.01 | 77 | 1017.6 |
| 20260902105205 | 65 | 212 | 1.7 | 6.1 | 0.00 | 0.00 | 0.00 | 77 | 1017.7 |
| 20260902104204 | 66 | 182 | 1.7 | 5.2 | 0.00 | 0.00 | 0.00 | 76 | 1017.8 |
| 20260902103704 | 67 | 186 | 1.7 | 5.2 | 0.00 | 0.00 | 0.00 | 76 | 1017.6 |
| 20260902103204 | 67 | 183 | 1.7 | 5.2 | 0.00 | 0.00 | 0.00 | 76 | 1017.6 |
| 20260902102725 | 67 | 169 | 0.9 | 5.2 | 0.00 | 0.00 | 0.00 | 76 | 1017.6 |
| 20260902101704 | 67 | 183 | 0.9 | 3.5 | 0.00 | 0.00 | 0.00 | 76 | 1017.7 |
| 20260902101205 | 67 | 180 | 0.9 | 2.6 | 0.00 | 0.00 | 0.00 | 76 | 1017.7 |
| 20260902100705 | 67 | 188 | 0.9 | 3.5 | 0.00 | 0.00 | 0.00 | 76 | 1017.6 |
| 20260902100204 | 66 | 207 | 0.9 | 5.2 | 0.00 | 0.00 | 0.00 | 76 | 1017.6 |
| 20260902095704 | 66 | 206 | 0.9 | 5.2 | 0.00 | 0.00 | 0.00 | 76 | 1017.6 |
| 20260902095204 | 66 | 203 | 1.7 | 5.2 | 0.00 | 0.00 | 0.00 | 76 | 1017.6 |
| 20260902094704 | 66 | 183 | 1.7 | 5.2 | 0.00 | 0.00 | 0.00 | 76 | 1017.6 |
| 20260902094204 | 66 | 173 | 1.7 | 5.2 | 0.00 | 0.00 | 0.00 | 77 | 1017.7 |
| 20260902093704 | 66 | 224 | 1.7 | 3.5 | 0.00 | 0.00 | 0.00 | 77 | 1017.6 |
| 20260902093204 | 66 | 183 | 0.9 | 3.5 | 0.00 | 0.00 | 0.00 | 77 | 1017.6 |
| 20260902092704 | 66 | 186 | 1.7 | 4.3 | 0.00 | 0.00 | 0.00 | 76 | 1017.8 |
| 20260902092205 | 66 | 193 | 1.7 | 4.3 | 0.00 | 0.00 | 0.00 | 76 | 1017.8 |
| 20260902091708 | 66 | 168 | 0.9 | 4.3 | 0.00 | 0.00 | 0.00 | 76 | 1017.8 |
| 20260902091205 | 66 | 196 | 0.9 | 4.3 | 0.00 | 0.00 | 0.00 | 76 | 1017.7 |
| 20260902090704 | 66 | 197 | 1.7 | 4.3 | 0.00 | 0.00 | 0.00 | 76 | 1017.7 |
| 20260902090209 | 66 | 206 | 0.9 | 4.3 | 0.00 | 0.00 | 0.00 | 76 | 1017.7 |
| 20260902085704 | 66 | 217 | 0.9 | 4.3 | 0.00 | 0.00 | 0.00 | 76 | 1017.6 |
| 20260902085207 | 66 | 209 | 1.7 | 3.5 | 0.00 | 0.00 | 0.00 | 76 | 1017.7 |
| 20260902084707 | 66 | 188 | 0.9 | 3.5 | 0.00 | 0.00 | 0.00 | 76 | 1017.6 |
| 20260902084204 | 65 | 179 | 1.7 | 3.5 | 0.00 | 0.00 | 0.00 | 76 | 1017.6 |
| 20260902083704 | 65 | 155 | 0.9 | 3.5 | 0.00 | 0.00 | 0.00 | 76 | 1017.6 |
| 20260902083205 | 65 | 178 | 0.9 | 3.5 | 0.00 | 0.00 | 0.00 | 76 | 1017.5 |
| 20260902082705 | 65 | 196 | 0.9 | 3.5 | 0.00 | 0.00 | 0.00 | 77 | 1017.6 |
| 20260902082205 | 65 | 195 | 0.9 | 2.6 | 0.00 | 0.00 | 0.00 | 77 | 1017.5 |
| 20260902081204 | 65 | 200 | 0.9 | 4.3 | 0.00 | 0.00 | 0.00 | 77 | 1017.5 |
| 20260902080704 | 65 | 200 | 0.9 | 4.3 | 0.00 | 0.00 | 0.00 | 77 | 1017.4 |
| 20260902080205 | 65 | 200 | 0.9 | 3.5 | 0.00 | 0.00 | 0.00 | 77 | 1017.3 |
| 20260902075705 | 64 | 199 | 0.9 | 5.2 | 0.00 | 0.00 | 0.00 | 77 | 1017.3 |
| 20260902075205 | 64 | 197 | 0.9 | 5.2 | 0.00 | 0.00 | 0.00 | 77 | 1017.2 |
| 20260902074205 | 64 | 238 | 0.0 | 3.5 | 0.00 | 0.00 | 0.00 | 77 | 1017.3 |
| 20260902073705 | 64 | 252 | 0.9 | 4.3 | 0.00 | 0.00 | 0.00 | 77 | 1017.3 |
| 20260902073204 | 64 | 255 | 2.6 | 4.3 | 0.00 | 0.00 | 0.00 | 77 | 1017.3 |
| 20260902072706 | 64 | 230 | 0.9 | 4.3 | 0.00 | 0.00 | 0.00 | 77 | 1017.3 |
| 20260902072205 | 63 | 226 | 0.9 | 2.6 | 0.00 | 0.00 | 0.00 | 77 | 1017.3 |
| 20260902071205 | 63 | 221 | 0.9 | 2.6 | 0.00 | 0.00 | 0.00 | 77 | 1017.3 |
| 20260902070204 | 62 | 223 | 0.0 | 3.5 | 0.00 | 0.00 | 0.00 | 77 | 1017.3 |
| 20260902065707 | 62 | 223 | 0.0 | 3.5 | 0.00 | 0.00 | 0.00 | 77 | 1017.2 |
| 20260902065205 | 62 | 224 | 0.0 | 1.7 | 0.00 | 0.00 | 0.00 | 77 | 1017.2 |
| 20260902064704 | 62 | 223 | 0.0 | 2.6 | 0.00 | 0.00 | 0.00 | 77 | 1017.1 |
| 20260902064204 | 62 | 223 | 0.0 | 2.6 | 0.00 | 0.00 | 0.00 | 77 | 1017.0 |
| 20260902063704 | 61 | 224 | 0.9 | 2.6 | 0.00 | 0.00 | 0.00 | 77 | 1017.2 |
| 20260902063204 | 61 | 226 | 0.0 | 1.7 | 0.00 | 0.00 | 0.00 | 77 | 1017.2 |
| 20260902062705 | 61 | 226 | 0.0 | 1.7 | 0.00 | 0.00 | 0.00 | 77 | 1017.3 |
| 20260902061704 | 61 | 226 | 0.0 | 0.9 | 0.00 | 0.00 | 0.00 | 77 | 1017.0 |
| 20260902061204 | 61 | 226 | 0.0 | 0.9 | 0.00 | 0.00 | 0.00 | 77 | 1017.1 |
| 20260902060705 | 61 | 226 | 0.0 | 1.7 | 0.00 | 0.00 | 0.00 | 77 | 1017.0 |
| 20260902060205 | 60 | 226 | 0.0 | 1.7 | 0.00 | 0.00 | 0.00 | 77 | 1017.1 |
| 20260902055705 | 60 | 226 | 0.0 | 1.7 | 0.00 | 0.00 | 0.00 | 77 | 1017.0 |
| 20260902055204 | 60 | 226 | 0.0 | 0.9 | 0.00 | 0.00 | 0.00 | 77 | 1017.0 |
| 20260902054705 | 60 | 226 | 0.0 | 0.9 | 0.00 | 0.00 | 0.00 | 77 | 1016.9 |
| 20260902054206 | 60 | 226 | 0.0 | 0.9 | 0.00 | 0.00 | 0.00 | 77 | 1016.9 |
| 20260902053704 | 60 | 226 | 0.0 | 0.9 | 0.00 | 0.00 | 0.00 | 77 | 1016.9 |
| 20260902053204 | 60 | 226 | 0.0 | 0.9 | 0.00 | 0.00 | 0.00 | 77 | 1016.8 |
| 20260902052704 | 60 | 226 | 0.0 | 0.9 | 0.00 | 0.00 | 0.00 | 77 | 1016.9 |
| 20260902052210 | 60 | 226 | 0.0 | 0.9 | 0.00 | 0.00 | 0.00 | 78 | 1016.9 |
| 20260902051704 | 60 | 226 | 0.0 | 0.9 | 0.00 | 0.00 | 0.00 | 78 | 1016.9 |
| 20260902051204 | 60 | 226 | 0.0 | 0.9 | 0.00 | 0.00 | 0.00 | 78 | 1016.8 |
| 20260902050704 | 61 | 226 | 0.0 | 0.9 | 0.00 | 0.00 | 0.00 | 78 | 1016.9 |
| 20260902045704 | 61 | 226 | 0.0 | 0.9 | 0.00 | 0.00 | 0.00 | 78 | 1016.9 |
| 20260902045205 | 61 | 226 | 0.0 | 0.9 | 0.00 | 0.00 | 0.00 | 78 | 1016.9 |
| 20260902044705 | 61 | 226 | 0.0 | 0.9 | 0.00 | 0.00 | 0.00 | 78 | 1016.9 |
| 20260902044204 | 61 | 226 | 0.0 | 0.9 | 0.00 | 0.00 | 0.00 | 78 | 1016.9 |
| 20260902043704 | 61 | 226 | 0.0 | 0.9 | 0.00 | 0.00 | 0.00 | 78 | 1016.9 |
| 20260902043203 | 61 | 226 | 0.0 | 0.9 | 0.00 | 0.00 | 0.00 | 78 | 1016.8 |
| 20260902042705 | 61 | 226 | 0.0 | 0.9 | 0.00 | 0.00 | 0.00 | 78 | 1016.9 |
| 20260902042206 | 62 | 226 | 0.0 | 0.9 | 0.00 | 0.00 | 0.00 | 78 | 1017.0 |
| 20260902041705 | 62 | 226 | 0.0 | 0.9 | 0.00 | 0.00 | 0.00 | 78 | 1017.0 |
| 20260902041205 | 62 | 226 | 0.0 | 0.9 | 0.00 | 0.00 | 0.00 | 78 | 1017.0 |
| 20260902040704 | 62 | 226 | 0.0 | 0.0 | 0.00 | 0.00 | 0.00 | 78 | 1016.9 |
| 20260902040204 | 62 | 226 | 0.0 | 0.0 | 0.00 | 0.00 | 0.00 | 78 | 1017.0 |
| 20260902035205 | 62 | 226 | 0.0 | 0.9 | 0.00 | 0.00 | 0.00 | 77 | 1017.0 |
| 20260902034705 | 62 | 226 | 0.0 | 0.9 | 0.00 | 0.00 | 0.00 | 77 | 1017.1 |
| 20260902034204 | 62 | 226 | 0.0 | 1.7 | 0.00 | 0.00 | 0.00 | 77 | 1017.1 |
| 20260902033704 | 62 | 226 | 0.0 | 1.7 | 0.00 | 0.00 | 0.00 | 77 | 1017.1 |
| 20260902032704 | 62 | 226 | 0.0 | 1.7 | 0.00 | 0.00 | 0.00 | 77 | 1017.2 |
| 20260902032204 | 62 | 226 | 0.0 | 1.7 | 0.00 | 0.00 | 0.00 | 77 | 1017.1 |
| 20260902031705 | 62 | 226 | 0.0 | 0.9 | 0.00 | 0.00 | 0.00 | 77 | 1017.1 |
| 20260902031204 | 62 | 226 | 0.0 | 1.7 | 0.00 | 0.00 | 0.00 | 77 | 1017.1 |
| 20260902030709 | 62 | 226 | 0.0 | 1.7 | 0.00 | 0.00 | 0.00 | 77 | 1017.0 |
| 20260902030206 | 62 | 226 | 0.0 | 3.5 | 0.00 | 0.00 | 0.00 | 77 | 1017.0 |
| 20260902025705 | 62 | 226 | 0.0 | 3.5 | 0.00 | 0.00 | 0.00 | 77 | 1017.0 |
| 20260902025205 | 62 | 226 | 0.9 | 1.7 | 0.00 | 0.00 | 0.00 | 77 | 1017.1 |
| 20260902024703 | 62 | 227 | 0.9 | 1.7 | 0.00 | 0.00 | 0.00 | 77 | 1017.1 |
| 20260902023704 | 62 | 227 | 0.0 | 1.7 | 0.00 | 0.00 | 0.00 | 77 | 1017.0 |
| 20260902023206 | 62 | 227 | 0.0 | 1.7 | 0.00 | 0.00 | 0.00 | 77 | 1017.0 |
| 20260902022704 | 62 | 227 | 0.0 | 1.7 | 0.00 | 0.00 | 0.00 | 77 | 1017.0 |
| 20260902022204 | 62 | 227 | 0.0 | 2.6 | 0.00 | 0.00 | 0.00 | 77 | 1017.0 |
| 20260902021232 | 62 | 227 | 0.0 | 2.6 | 0.00 | 0.00 | 0.00 | 77 | 1017.0 |
| 20260902015704 | 62 | 227 | 0.0 | 0.9 | 0.00 | 0.00 | 0.00 | 76 | 1017.1 |
| 20260902014704 | 62 | 227 | 0.0 | 0.9 | 0.00 | 0.00 | 0.00 | 76 | 1017.2 |
| 20260902014204 | 63 | 227 | 0.0 | 0.9 | 0.00 | 0.00 | 0.00 | 76 | 1017.3 |
| 20260902013705 | 63 | 227 | 0.0 | 0.9 | 0.00 | 0.00 | 0.00 | 76 | 1017.3 |
| 20260902013204 | 63 | 227 | 0.0 | 0.9 | 0.00 | 0.00 | 0.00 | 76 | 1017.3 |
| 20260902012714 | 63 | 227 | 0.0 | 1.7 | 0.00 | 0.00 | 0.00 | 76 | 1017.3 |
| 20260902012204 | 63 | 227 | 0.0 | 1.7 | 0.00 | 0.00 | 0.00 | 76 | 1017.3 |
| 20260902011704 | 63 | 227 | 0.0 | 1.7 | 0.00 | 0.00 | 0.00 | 75 | 1017.2 |
| 20260902011204 | 63 | 227 | 0.0 | 1.7 | 0.00 | 0.00 | 0.00 | 75 | 1017.3 |
| 20260902010704 | 63 | 233 | 0.0 | 1.7 | 0.00 | 0.00 | 0.00 | 75 | 1017.4 |
| 20260902010204 | 63 | 233 | 0.9 | 2.6 | 0.00 | 0.00 | 0.00 | 75 | 1017.4 |
| 20260902005704 | 63 | 233 | 0.9 | 2.6 | 0.00 | 0.00 | 0.00 | 75 | 1017.4 |
| 20260902005204 | 63 | 233 | 0.0 | 2.6 | 0.00 | 0.00 | 0.00 | 75 | 1017.4 |
| 20260902004704 | 63 | 234 | 0.0 | 3.5 | 0.00 | 0.00 | 0.00 | 75 | 1017.3 |
| 20260902004206 | 63 | 234 | 0.9 | 3.5 | 0.00 | 0.00 | 0.00 | 75 | 1017.4 |
| 20260902003703 | 63 | 234 | 0.9 | 3.5 | 0.00 | 0.00 | 0.00 | 75 | 1017.4 |
| 20260902003204 | 63 | 234 | 0.0 | 2.6 | 0.00 | 0.00 | 0.00 | 75 | 1017.4 |
| 20260902002705 | 63 | 243 | 0.9 | 2.6 | 0.00 | 0.00 | 0.00 | 74 | 1017.5 |
| 20260902002204 | 63 | 243 | 0.9 | 2.6 | 0.00 | 0.00 | 0.00 | 74 | 1017.4 |
| 20260902001705 | 63 | 243 | 0.9 | 2.6 | 0.00 | 0.00 | 0.00 | 74 | 1017.5 |
| 20260902001206 | 64 | 240 | 0.9 | 2.6 | 0.00 | 0.00 | 0.00 | 74 | 1017.4 |
| 20260902000704 | 64 | 241 | 0.9 | 2.6 | 0.00 | 0.00 | 0.00 | 74 | 1017.6 |
| 20260902000204 | 64 | 241 | 0.9 | 2.6 | 0.00 | 0.00 | 0.00 | 74 | 1017.6 |
| 20260901235705 | 64 | 241 | 0.9 | 5.2 | 0.00 | 0.00 | 0.00 | 74 | 1017.6 |
| 20260901235204 | 64 | 243 | 0.9 | 6.1 | 0.00 | 0.00 | 0.00 | 73 | 1017.6 |
| 20260901234704 | 64 | 240 | 0.9 | 6.1 | 0.00 | 0.00 | 0.00 | 73 | 1017.6 |
| 20260901234204 | 64 | 254 | 1.7 | 6.1 | 0.00 | 0.00 | 0.00 | 73 | 1017.6 |
| 20260901233704 | 64 | 196 | 1.7 | 3.5 | 0.00 | 0.00 | 0.00 | 73 | 1017.7 |
| 20260901233203 | 64 | 195 | 0.0 | 3.5 | 0.00 | 0.00 | 0.00 | 73 | 1017.6 |
| 20260901232708 | 64 | 195 | 1.7 | 3.5 | 0.00 | 0.00 | 0.00 | 73 | 1017.6 |
| 20260901232205 | 64 | 193 | 0.9 | 3.5 | 0.00 | 0.00 | 0.00 | 73 | 1017.6 |
| 20260901231705 | 64 | 193 | 0.9 | 3.5 | 0.00 | 0.00 | 0.00 | 73 | 1017.6 |
| 20260901231204 | 64 | 192 | 1.7 | 2.6 | 0.00 | 0.00 | 0.00 | 73 | 1017.6 |
| 20260901230709 | 64 | 189 | 0.9 | 2.6 | 0.00 | 0.00 | 0.00 | 73 | 1017.6 |
| 20260901230203 | 64 | 189 | 0.0 | 2.6 | 0.00 | 0.00 | 0.00 | 73 | 1017.6 |
| 20260901225709 | 64 | 189 | 0.9 | 1.7 | 0.00 | 0.00 | 0.00 | 72 | 1017.7 |
| 20260901224705 | 64 | 189 | 0.9 | 1.7 | 0.00 | 0.00 | 0.00 | 72 | 1017.7 |
| 20260901224204 | 64 | 189 | 0.9 | 1.7 | 0.00 | 0.00 | 0.00 | 72 | 1017.7 |
| 20260901223704 | 64 | 189 | 0.9 | 1.7 | 0.00 | 0.00 | 0.00 | 72 | 1017.6 |
| 20260901223205 | 64 | 189 | 0.0 | 1.7 | 0.00 | 0.00 | 0.00 | 72 | 1017.7 |
| 20260901222705 | 64 | 189 | 0.9 | 2.6 | 0.00 | 0.00 | 0.00 | 72 | 1017.7 |
| 20260901221730 | 64 | 189 | 0.9 | 2.6 | 0.00 | 0.00 | 0.00 | 72 | 1017.7 |
| 20260901220704 | 64 | 188 | 0.0 | 2.6 | 0.00 | 0.00 | 0.00 | 72 | 1017.8 |
| 20260901215709 | 64 | 189 | 0.9 | 2.6 | 0.00 | 0.00 | 0.00 | 72 | 1017.9 |
| 20260901215204 | 64 | 188 | 0.0 | 2.6 | 0.00 | 0.00 | 0.00 | 72 | 1017.9 |
| 20260901214704 | 64 | 188 | 0.9 | 2.6 | 0.00 | 0.00 | 0.00 | 71 | 1018.0 |
| 20260901214211 | 64 | 186 | 0.0 | 2.6 | 0.00 | 0.00 | 0.00 | 71 | 1017.9 |
| 20260901213704 | 64 | 186 | 0.0 | 1.7 | 0.00 | 0.00 | 0.00 | 71 | 1017.8 |
| 20260901213204 | 64 | 186 | 0.0 | 2.6 | 0.00 | 0.00 | 0.00 | 71 | 1017.7 |
| 20260901212704 | 64 | 186 | 0.0 | 2.6 | 0.00 | 0.00 | 0.00 | 71 | 1017.7 |
| 20260901212209 | 64 | 186 | 0.9 | 1.7 | 0.00 | 0.00 | 0.00 | 71 | 1017.9 |
| 20260901211704 | 64 | 186 | 0.0 | 1.7 | 0.00 | 0.00 | 0.00 | 70 | 1017.8 |
| 20260901211204 | 65 | 186 | 0.0 | 4.3 | 0.00 | 0.00 | 0.00 | 70 | 1017.7 |
| 20260901210705 | 65 | 186 | 0.0 | 4.3 | 0.00 | 0.00 | 0.00 | 70 | 1017.7 |
| 20260901205705 | 65 | 186 | 0.9 | 3.5 | 0.00 | 0.00 | 0.00 | 70 | 1017.7 |
| 20260901205204 | 65 | 176 | 0.0 | 3.5 | 0.00 | 0.00 | 0.00 | 69 | 1017.7 |
| 20260901204704 | 65 | 176 | 0.9 | 3.5 | 0.00 | 0.00 | 0.00 | 69 | 1017.7 |
| 20260901204204 | 65 | 173 | 0.9 | 3.5 | 0.00 | 0.00 | 0.00 | 69 | 1017.8 |
| 20260901203704 | 65 | 172 | 0.0 | 4.3 | 0.00 | 0.00 | 0.00 | 69 | 1017.7 |
| 20260901203204 | 65 | 172 | 0.9 | 4.3 | 0.00 | 0.00 | 0.00 | 68 | 1017.6 |
| 20260901201704 | 66 | 207 | 0.9 | 3.5 | 0.00 | 0.00 | 0.00 | 67 | 1017.6 |
| 20260901201204 | 66 | 207 | 0.9 | 5.2 | 0.00 | 0.00 | 0.00 | 67 | 1017.5 |
| 20260901200704 | 66 | 213 | 0.9 | 5.2 | 0.00 | 0.00 | 0.00 | 67 | 1017.5 |
| 20260901200204 | 66 | 227 | 0.0 | 6.1 | 0.00 | 0.00 | 0.00 | 67 | 1017.6 |
| 20260901195704 | 66 | 172 | 0.9 | 6.1 | 0.00 | 0.00 | 0.00 | 67 | 1017.5 |
| 20260901195204 | 66 | 171 | 1.7 | 6.1 | 0.00 | 0.00 | 0.00 | 66 | 1017.6 |
| 20260901194705 | 67 | 196 | 0.9 | 5.2 | 0.00 | 0.00 | 0.00 | 66 | 1017.6 |
| 20260901194204 | 67 | 207 | 0.9 | 6.1 | 0.00 | 0.00 | 0.00 | 66 | 1017.5 |
| 20260901193704 | 67 | 185 | 1.7 | 6.1 | 0.00 | 0.00 | 0.00 | 66 | 1017.4 |
| 20260901193204 | 67 | 221 | 1.7 | 6.1 | 0.00 | 0.00 | 0.00 | 65 | 1017.4 |
| 20260901192704 | 67 | 182 | 1.7 | 6.1 | 0.00 | 0.00 | 0.00 | 65 | 1017.4 |
| 20260901191706 | 68 | 179 | 0.9 | 5.2 | 0.00 | 0.00 | 0.00 | 64 | 1017.3 |
| 20260901191204 | 68 | 185 | 0.0 | 5.2 | 0.00 | 0.00 | 0.00 | 64 | 1017.2 |
| 20260901190703 | 68 | 175 | 1.7 | 3.5 | 0.00 | 0.00 | 0.00 | 64 | 1017.2 |
| 20260901190204 | 68 | 231 | 0.9 | 5.2 | 0.00 | 0.00 | 0.00 | 63 | 1017.1 |
| 20260901185204 | 69 | 250 | 1.7 | 7.8 | 0.00 | 0.00 | 0.00 | 62 | 1017.0 |
| 20260901184204 | 69 | 200 | 0.9 | 6.1 | 0.00 | 0.00 | 0.00 | 60 | 1017.0 |
| 20260901183705 | 69 | 206 | 1.7 | 5.2 | 0.00 | 0.00 | 0.00 | 58 | 1017.1 |
| 20260901182704 | 70 | 200 | 0.9 | 8.7 | 0.00 | 0.00 | 0.00 | 55 | 1017.1 |
| 20260901182204 | 70 | 233 | 1.7 | 9.6 | 0.00 | 0.00 | 0.00 | 54 | 1017.0 |
| 20260901181704 | 70 | 183 | 1.7 | 9.6 | 0.00 | 0.00 | 0.00 | 52 | 1017.0 |
| 20260901181205 | 71 | 244 | 3.5 | 9.6 | 0.00 | 0.00 | 0.00 | 51 | 1016.9 |
| 20260901180704 | 71 | 247 | 1.7 | 4.3 | 0.00 | 0.00 | 0.00 | 49 | 1016.9 |
| 20260901175704 | 71 | 186 | 0.9 | 4.3 | 0.00 | 0.00 | 0.00 | 47 | 1016.8 |
| 20260901175205 | 72 | 161 | 1.7 | 5.2 | 0.00 | 0.00 | 0.00 | 46 | 1016.7 |
| 20260901174204 | 72 | 202 | 0.9 | 8.7 | 0.00 | 0.00 | 0.00 | 46 | 1016.9 |
| 20260901173739 | 73 | 254 | 2.6 | 8.7 | 0.00 | 0.00 | 0.00 | 45 | 1016.6 |
| 20260901173204 | 73 | 240 | 2.6 | 5.2 | 0.00 | 0.00 | 0.00 | 45 | 1016.6 |
| 20260901172705 | 73 | 202 | 1.7 | 6.1 | 0.00 | 0.00 | 0.00 | 45 | 1016.7 |
| 20260901172204 | 72 | 243 | 1.7 | 6.1 | 0.00 | 0.00 | 0.00 | 45 | 1016.7 |
| 20260901171705 | 72 | 231 | 3.5 | 6.1 | 0.00 | 0.00 | 0.00 | 45 | 1016.8 |
| 20260901171204 | 72 | 240 | 1.7 | 6.1 | 0.00 | 0.00 | 0.00 | 46 | 1016.8 |
| 20260901170704 | 72 | 202 | 0.9 | 4.3 | 0.00 | 0.00 | 0.00 | 46 | 1016.7 |
| 20260901170204 | 72 | 200 | 0.9 | 5.2 | 0.00 | 0.00 | 0.00 | 46 | 1016.6 |
| 20260901165714 | 72 | 193 | 1.7 | 5.2 | 0.00 | 0.00 | 0.00 | 46 | 1016.7 |
| 20260901165205 | 72 | 264 | 1.7 | 5.2 | 0.00 | 0.00 | 0.00 | 47 | 1016.8 |
| 20260901164704 | 72 | 234 | 0.9 | 5.2 | 0.00 | 0.00 | 0.00 | 48 | 1016.8 |
| 20260901164204 | 72 | 231 | 1.7 | 5.2 | 0.00 | 0.00 | 0.00 | 47 | 1016.7 |
| 20260901163706 | 72 | 243 | 1.7 | 6.1 | 0.00 | 0.00 | 0.00 | 48 | 1016.6 |
| 20260901163205 | 72 | 241 | 2.6 | 6.1 | 0.00 | 0.00 | 0.00 | 47 | 1016.6 |
| 20260901162704 | 72 | 269 | 2.6 | 8.7 | 0.00 | 0.00 | 0.00 | 47 | 1016.6 |
| 20260901162204 | 72 | 234 | 2.6 | 8.7 | 0.00 | 0.00 | 0.00 | 46 | 1016.5 |
| 20260901161704 | 72 | 237 | 3.5 | 7.8 | 0.00 | 0.00 | 0.00 | 46 | 1016.8 |
| 20260901160704 | 72 | 251 | 3.5 | 6.1 | 0.00 | 0.00 | 0.00 | 45 | 1016.9 |
| 20260901160207 | 72 | 241 | 2.6 | 6.1 | 0.00 | 0.00 | 0.00 | 46 | 1016.9 |
| 20260901155205 | 72 | 268 | 2.6 | 5.2 | 0.00 | 0.00 | 0.00 | 46 | 1016.9 |
| 20260901154204 | 73 | 221 | 1.7 | 7.8 | 0.00 | 0.00 | 0.00 | 45 | 1017.1 |
| 20260901153704 | 73 | 243 | 3.5 | 7.8 | 0.00 | 0.00 | 0.00 | 45 | 1017.2 |
| 20260901153204 | 73 | 168 | 1.7 | 7.8 | 0.00 | 0.00 | 0.00 | 46 | 1017.0 |
| 20260901152704 | 73 | 252 | 4.3 | 8.7 | 0.00 | 0.00 | 0.00 | 45 | 1017.1 |
| 20260901152205 | 73 | 207 | 1.7 | 8.7 | 0.00 | 0.00 | 0.00 | 44 | 1017.2 |
| 20260901151204 | 74 | 261 | 2.6 | 8.7 | 0.00 | 0.00 | 0.00 | 44 | 1017.2 |
| 20260901150704 | 73 | 234 | 3.5 | 8.7 | 0.00 | 0.00 | 0.00 | 44 | 1017.1 |
| 20260901145707 | 73 | 228 | 2.6 | 12.2 | 0.00 | 0.00 | 0.00 | 45 | 1017.1 |
| 20260901145204 | 73 | 240 | 3.5 | 12.2 | 0.00 | 0.00 | 0.00 | 45 | 1017.2 |
| 20260901143707 | 74 | 240 | 4.3 | 7.8 | 0.00 | 0.00 | 0.00 | 43 | 1017.3 |
| 20260901143204 | 74 | 230 | 2.6 | 8.7 | 0.00 | 0.00 | 0.00 | 44 | 1017.3 |
| 20260901142738 | 74 | 195 | 3.5 | 8.7 | 0.00 | 0.00 | 0.00 | 45 | 1017.1 |
| 20260901142204 | 74 | 241 | 4.3 | 8.7 | 0.00 | 0.00 | 0.00 | 46 | 1017.1 |
| 20260901141708 | 74 | 203 | 2.6 | 6.1 | 0.00 | 0.00 | 0.00 | 46 | 1017.2 |
| 20260901141208 | 73 | 178 | 1.7 | 7.8 | 0.00 | 0.00 | 0.00 | 48 | 1017.2 |
| 20260901140203 | 72 | 262 | 1.7 | 7.8 | 0.00 | 0.00 | 0.00 | 50 | 1017.3 |
| 20260901135705 | 71 | 173 | 2.6 | 8.7 | 0.00 | 0.00 | 0.00 | 51 | 1017.4 |
| 20260901135204 | 72 | 235 | 3.5 | 8.7 | 0.00 | 0.00 | 0.00 | 50 | 1017.4 |
| 20260901134704 | 72 | 221 | 1.7 | 7.8 | 0.00 | 0.00 | 0.00 | 50 | 1017.3 |
| 20260901134204 | 71 | 209 | 3.5 | 7.8 | 0.00 | 0.00 | 0.00 | 52 | 1017.4 |
| 20260901133705 | 71 | 178 | 2.6 | 7.8 | 0.00 | 0.00 | 0.00 | 52 | 1017.4 |
| 20260901133205 | 71 | 224 | 2.6 | 6.1 | 0.00 | 0.00 | 0.00 | 51 | 1017.5 |
| 20260901132705 | 72 | 173 | 1.7 | 6.1 | 0.00 | 0.00 | 0.00 | 51 | 1017.5 |
| 20260901132204 | 72 | 262 | 1.7 | 6.1 | 0.00 | 0.00 | 0.00 | 51 | 1017.6 |
| 20260901131704 | 73 | 219 | 1.7 | 6.1 | 0.00 | 0.00 | 0.00 | 50 | 1017.6 |
| 20260901131204 | 72 | 176 | 0.9 | 5.2 | 0.00 | 0.00 | 0.00 | 53 | 1017.4 |
| 20260901130704 | 72 | 220 | 0.9 | 9.6 | 0.00 | 0.00 | 0.00 | 52 | 1017.6 |
| 20260901130204 | 72 | 203 | 1.7 | 9.6 | 0.00 | 0.00 | 0.00 | 50 | 1017.6 |
| 20260901125704 | 72 | 155 | 1.7 | 9.6 | 0.00 | 0.00 | 0.00 | 50 | 1017.6 |
| 20260901124704 | 72 | 288 | 2.6 | 5.2 | 0.00 | 0.00 | 0.00 | 51 | 1017.7 |
| 20260901124205 | 71 | 252 | 2.6 | 5.2 | 0.00 | 0.00 | 0.00 | 51 | 1017.8 |
| 20260901123704 | 71 | 223 | 1.7 | 5.2 | 0.00 | 0.00 | 0.00 | 49 | 1017.7 |
| 20260901122705 | 72 | 231 | 1.7 | 6.1 | 0.00 | 0.00 | 0.00 | 47 | 1017.7 |
| 20260901122204 | 73 | 244 | 2.6 | 8.7 | 0.00 | 0.00 | 0.00 | 47 | 1017.8 |
| 20260901121736 | 72 | 134 | 1.7 | 8.7 | 0.00 | 0.00 | 0.00 | 47 | 1017.9 |
| 20260901121204 | 72 | 216 | 2.6 | 8.7 | 0.00 | 0.00 | 0.00 | 48 | 1017.9 |